Regional Weather Roundup
Issued by NWS Cleveland, OH

Home | Current Version | Previous Version | Text Only | Print | Product List | Glossary Off
Versions: 1 2 3 4 5 6 7 8 9 10 11 12 13 14 15 16 17 18 19 20 21 22 23 24 25 26 27 28 29 30 31 32 33 34 35 36 37 38 39 40 41 42 43 44 45 46 47 48 49 50

000
ASUS41 KCLE 150702
RWRCLE
OHIO REGIONAL WEATHER ROUNDUP
NATIONAL WEATHER SERVICE CLEVELAND, OH
300 AM EDT MON SEP 15 2014

NOTE: "FAIR" INDICATES FEW OR NO CLOUDS BELOW 12,000 FEET WITH NO
SIGNIFICANT WEATHER AND/OR OBSTRUCTIONS TO VISIBILITY.

OHZ001>008-015>018-024>027-034-035-043-044-150800-
   NORTHWEST OHIO

CITY           SKY/WX    TMP DP  RH WIND       PRES   REMARKS
DEFIANCE       CLEAR     47  44  90 CALM      30.22R
FINDLAY        CLEAR     50  45  83 CALM      30.20F
TOLEDO EXPRESS CLEAR     45  44  97 CALM      30.21S
TOLEDO EXEC    CLEAR     50  44  80 CALM      30.22S
LIMA           CLEAR     48  44  86 SE3       30.21S
$$

OHZ009>014-019>023-028>033-038-089-150800-
   NORTHEAST OHIO

CITY           SKY/WX    TMP DP  RH WIND       PRES   REMARKS
CLE-HOPKINS    PTCLDY    49  46  90 CALM      30.24S
CLE-LAKEFRONT  CLEAR     52  47  83 S8        30.22S
CUY CO. ARPT   NOT AVBL
LORAIN-ELYRIA  CLEAR     49  44  83 CALM      30.23S
ASHTABULA      CLEAR     45  43  93 CALM      30.24S
AKRON-CANTON   CLEAR     50  44  80 CALM      30.23F
WOOSTER        CLEAR     42  40  92 CALM      30.24S
MANSFIELD      CLEAR     46  44  93 CALM      30.23S
YOUNGSTOWN     PTCLDY    43  41  93 CALM      30.23F
$$

OHZ042-051>053-060>062-070>072-077>081-150800-
  SOUTHWEST OHIO

CITY           SKY/WX    TMP DP  RH WIND       PRES   REMARKS
CINC-COVINGTON CLEAR     52  48  86 CALM      30.20F
CINC-LUNKEN    CLOUDY    49  48  97 CALM      30.22F
HAMILTON       FOG       47  46  97 CALM      30.22F VSB 3/4
DAYTON         CLEAR     52  47  83 SE6       30.21F
WRIGHT-PAT AFB NOT AVBL
DAYTON GENERAL CLEAR     51  47  86 CALM      30.20F
WILMINGTON     CLEAR     49  44  83 CALM      30.21F
$$

OHZ036-037-039>041-045>050-054>059-063>069-073>076-082>088-150800-
  CENTRAL AND SOUTHEAST OHIO

CITY           SKY/WX    TMP DP  RH WIND       PRES   REMARKS
COLUMBUS       CLEAR     52  46  80 CALM      30.22S
OSU AIRPORT    CLEAR     48  45  89 CALM      30.22S
BOLTON FIELD   CLEAR     46  45  99 CALM      30.23R
RICKENBACK AFB CLEAR     47  45  91 CALM      30.22S
NEWARK         FOG       42  40  92 CALM      30.23S VSB 1
MARION         CLEAR     47  43  86 CALM      30.22F
LANCASTER      CLEAR     45  43  93 S3        30.23S
ZANESVILLE     CLEAR     45  41  86 CALM      30.23S
NEW PHILLY     FOG       46  46 100 CALM      30.24F VSB 1/4
$$



USA.gov is the U.S. government's official web portal to all federal, state and local government web resources and services.